Location: Ethel Rock
(53.4667°N, 4.5667°W)
Time: 05:26:50
(UTC+00:00)

NOSS 3-3 (C) - Pass Details

Date: 24 October 2020
Orbit: 825 x 1387 km, 63.4° (Epoch: 22 November)

Event Time Altitude Azimuth Distance (km) Brightness Sun altitude
Exits shadow 04:14:27 44° 289° (WNW) 1,631 4.7 -25.5°
Maximum altitude 04:16:51 62° 232° (SW) 1,388 4.4 -25.1°
Drops below altitude 10° 04:24:57 10° 154° (SSE) 3,379 6.9 -24.0°
Sets 04:27:57 0° 152° (SSE) 4,389 7.6 -23.5°
